This demonstration page uses our WeatherBlox Daily Observations layout. Learn more.

Left ArrowRight Arrow

38.20091, -84.87328

Hourly Observations for August 31, 2018

Temp ( °F °C ) Dew Point ( °F °C ) Humidity (%) Winds ( mph kmh ) Pressure ( in mb ) Visibility ( mi km ) Precip ( " mm )
12:53 am 00:53 Clear 71 21.7 69 20.6 94 94 NNW 3 6 30.09 1019 8 13 0.00 0.00
1:53 am 01:53 Mostly Cloudy 70 21.1 68 20 93 93 Calm 30.09 1019 9 14 0.00 0.00
2:53 am 02:53 Mostly Clear 70 21.1 68 20 93 93 Calm 30.08 1019 8 13 0.00 0.00
3:53 am 03:53 Clear with Mist and Fog 70 21.1 68 20 93 93 Calm 30.09 1019 6 10 0.00 0.00
4:32 am 04:32 Clear with Mist and Fog 70 21.1 68 20 93 93 Calm 30.09 1019 3 4 0.00 0.00
4:40 am 04:40 Clear 69 20.6 67 19.4 93 93 Calm 30.12 1020 7 11 0.00 0.00
4:53 am 04:53 Clear with Mist and Fog 68 20 67 19.4 96 96 Calm 30.09 1019 5 8 0.00 0.00
5:53 am 05:53 Clear with Mist and Fog 68 20 66 18.9 93 93 Calm 30.09 1019 4 6 0.00 0.00
6:53 am 06:53 Clear with Mist and Fog 68 20 66 18.9 93 93 Calm 30.10 1019 6 10 0.00 0.00
7:53 am 07:53 Sunny with Mist and Fog 70 21.1 68 20 93 93 Calm 30.10 1019 5 8 0.00 0.00
8:53 am 08:53 Sunny with Mist and Fog 73 22.8 70 21.1 90 90 ENE 3 6 30.10 1019 5 8 0.00 0.00
9:53 am 09:53 Sunny 76 24.4 71 21.7 85 85 ESE 5 7 30.11 1020 10 16 0.00 0.00
10:53 am 10:53 Sunny 81 27.2 72 22.2 74 74 VRB 5 7 30.11 1020 10 16 0.00 0.00
11:53 am 11:53 Sunny 83 28.3 72 22.2 70 70 SSE 6 9 30.11 1020 10 16 0.00 0.00
12:53 pm 12:53 Sunny 84 28.9 72 22.2 67 67 VRB 3 6 30.12 1020 10 16 0.00 0.00
1:53 pm 13:53 Sunny 84 28.9 72 22.2 67 67 SSE 5 7 30.11 1020 10 16 0.00 0.00
2:53 pm 14:53 Sunny 87 30.6 71 21.7 59 59 undefined N/A 30.09 1019 10 16 0.00 0.00
3:53 pm 15:53 Sunny 89 31.7 69 20.6 52 52 VRB 5 7 30.05 1018 10 16 0.00 0.00
4:53 pm 16:53 Mostly Sunny 87 30.6 69 20.6 55 55 SSW 3 6 30.05 1018 10 16 0.00 0.00
5:53 pm 17:53 Mostly Cloudy 85 29.4 71 21.7 63 63 WNW 5 7 30.04 1017 10 16 0.00 0.00
6:53 pm 18:53 Cloudy with Rain 73 22.8 70 21.1 90 90 NNE 9 15 30.11 1020 3 5 0.14 3.56
7:01 pm 19:01 Cloudy with Rain 73 22.8 70 21.1 90 90 WNW 10 17 30.09 1019 4 6 0.02 0.51
7:53 pm 19:53 Partly Cloudy with Light Rain 71 21.7 69 20.6 94 94 NNW 5 7 30.09 1019 10 16 0.07 1.78
8:53 pm 20:53 Mostly Clear with Light Rain 71 21.7 68 20 90 90 E 5 7 30.09 1019 10 16 0.03 0.76
9:53 pm 21:53 Partly Cloudy 71 21.7 69 20.6 94 94 E 5 7 30.12 1020 10 16 0.01 0.25
10:53 pm 22:53 Mostly Cloudy 73 22.8 70 21.1 90 90 SE 9 15 30.11 1020 10 16 0.00 0.00
11:53 pm 23:53 Clear 72 22.2 69 20.6 91 91 SSW 3 6 30.10 1019 10 16 0.00 0.00

Powered by AerisWeather